SCP
0 0 0 0 0 0 0 0 0 0 0 0 0 0 0 0 0 0 0 0 0 0 0 0 0 0 0 0 0 0 0 0 0 0 0 0 0 0 0 0 -0 -0 -0
0 -0 -0 0 0 0 0 0 0 0 0 0 0 0 0 0 0 0 0 0 0 0 0 0 0 0 0 0 0 0 0 0 0 0 0 0 0 0 0 0 0 0 -0
0 0 0 0 0 0 0 0 0 0 0 0 0 0 0 0 0 0 0 0 0 0 0 0 0 0 0 0 0 0 0 0 0 0 0 0 0 0 0 0 0 0 0
0 0 0 0 0 0 0 0 0 0 0 0 0 0 0 0 0 0 0 0 0 0 0 0 0 0 0 0 0 0 0 0 0 0 0 0 0 0 0 0 0 0 0
0 0 0 0 0 0 -0 -0 -0 0 0 0 0 0 0 0 0 0 0 0 0 0 0 0 0 0 0 0 0 0 0 0 0 0 0 0 0 0 0 0 0 0 0
0 0 0 0 0 0 0 -0 -0 -0 0 0 0 0 0 0 0 0 0 0 0 0 0 0 0 0 0 0 0 0 0 0 0 0 0 0 0 0 0 0 0 0 -0
0 -0 -0 0 0 0 0 0 0 0 0 0 0 0 0 0 0 0 0 0 0 0 0 0 0 0 0 0 0 0 0 0 0 0 0 0 0 0 0 0 0 0 0
0 0 0 0 0 0 0 0 0 0 0 0 0 0 0 0 0 0 0 0 0 0 0 0 0 0 0 0 0 0 0 0 0 0 0 0 0 0 0 0 0 0 0
-0 -0 0 0 0 0 0 0 0 0 0 0 0 0 0 0 0 0 0 0 0 0 0 0 0 0 0 0 0 0 0 0 0 0 0 0 0 0 0 0 0 0 0
-0 -0 -0 0 0 0 0 0 0 0 0 0 0 0 0 0 0 0 0 0 0 0 0 0 0 0 0 0 0 0 0 0 0 0 0 0 0 0 0 0 0 0 0
-0 -0 -0 -0 -0 0 0 0 0 0 0 0 0 0 0 0 0 0 0 0 0 0 0 0 0 0 0 0 0 0 0 0 0 0 0 0 0 0 0 0 0 0 0
0 -0 -0 -0 -0 -0 -0 -0 -0 0 0 0 0 0 0 0 0 0 0 0 0 0 0 0 0 0 0 0 0 0 0 0 0 0 0 0 0 0 0 0 0 0 0
0 -0 -0 -0 -0 -0 -0 -0 -0 -0 0 0 0 0 0 0 0 0 0 0 0 0 0 0 0 0 0 0 0 0 0 0 0 0 0 0 0 0 0 0 0 0 0
0 0 -0 -0 -0 -0 -0 -0 -0 -0 -0 0 0 0 0 0 0 0 0 0 0 0 0 0 0 0 0 0 0 0 0 0 0 0 0 0 0 0 0 0 0 0 0
0 0 0 -0 -0 -0 0 0 0 0 -0 0 0 0 0 0 0 0 0 0 0 0 0 0 0 0 0 0 0 0 0 0 0 0 0 0 0 0 0 0 0 0 0
0 0 0 0 0 0 -0 -0 0 -0 -0 -0 0 0 0 0 0 0 -0 0 0 0 0 0 0 0 0 0 0 0 0 0 0 0 0 0 0 0 0 0 0 0 0
0 0 0 0 0 0 0 0 0 -0 0 0 0 0 0 0 0 -0 0 -0 0 0 0 0 0 0 0 0 0 0 0 0 0 0 0 0 0 0 0 0 0 0 0
0 0 0 0 0 0 0 0 0 0 0 0 0 0 0 0 0 -0 -0 0 0 0 0 0 0 0 0 0 0 0 0 0 0 0 0 0 0 0 0 0 0 0 0
0 0 0 0 0 0 0 0 0 0 0 0 0 0 0 0 0 0 0 0 0 0 0 0 0 0 0 0 0 0 0 0 0 0 0 0 0 0 0 0 0 0 0
0 0 0 0 0 0 0 0 0 0 0 0 0 0 0 0 0 0 0 0 0 0 0 0 0 0 0 0 0 0 0 0 0 0 0 0 0 0 0 0 0 0 0
0 0 0 0 0 0 0 0 0 0 0 0 0 0 0 0 0 0 0 0 0 0 0 0 0 0 0 0 0 0 0 0 0 0 0 0 0 0 0 0 0 0 0
0 0 -0 -0 -0 -0 -0 -0 -0 0 0 0 0 0 0 0 0 0 0 0 0 0 0 0 0 0 0 0 0 0 0 0 0 0 0 0 0 0 0 0 0 0 0
0 0 0 0 -0 -0 0 0 0 0 0 0 0 0 0 0 0 0 0 0 0 0 0 0 0 0 0 0 0 0 0 0 0 0 0 0 0 0 0 0 0 0 0
0 0 0 0 -0 -0 0 0 0 0 -0 -0 0 0 0 0 0 0 0 0 0 0 0 0 0 0 0 0 0 0 0 0 0 0 0 0 0 0 0 0 0 0 0
0 0 0 0 0 0 0 0 0 -0 -0 0 0 0 0 0 0 0 0 0 0 0 0 0 0 0 0 0 0 0 0 0 0 0 0 0 0 0 0 0 0 0 0
-0 -0 -0 -0 0 -0 -0 -0 -0 -0 0 0 0 0 0 0 0 0 0 0 0 0 0 0 0 0 0 0 0 0 0 0 0 0 0 0 0 0 0 0 0 0 0
Wind_Speed_500mb
45 45 43 38 41 45 55 61 68 73 80 83 83 87 89 94 101 106 110 108 107 104 98 95 93 88 84 76 69 61 56 51 48 44 39 34 31 27 29 32 35 37 40
52 47 46 47 44 44 48 52 59 68 74 84 87 91 95 96 99 104 113 115 114 113 106 101 100 95 92 83 76 69 60 54 50 49 46 42 37 33 33 35 41 43 43
53 56 54 53 55 52 49 50 52 55 66 75 86 91 98 101 102 105 111 120 120 118 114 107 106 103 101 92 84 74 64 58 55 54 52 48 43 41 39 43 44 46 43
62 56 60 61 61 64 62 57 58 56 57 68 82 89 95 100 104 106 108 118 124 126 119 112 112 111 108 98 90 79 71 68 62 59 58 52 46 45 46 43 42 43 37
69 65 62 61 62 62 65 66 60 60 61 61 70 83 97 99 102 109 110 114 124 128 124 120 118 113 110 101 94 87 82 74 70 67 64 57 52 49 43 39 36 39 34
69 70 66 64 63 65 68 69 67 67 64 62 70 77 90 102 101 105 108 109 117 121 130 127 120 118 115 103 95 87 81 79 76 72 69 61 54 47 41 35 31 30 30
72 76 78 74 69 66 66 67 67 67 70 67 69 71 85 94 96 102 106 111 114 115 123 129 124 127 116 108 100 92 86 82 75 69 67 61 56 45 37 35 32 31 36
68 73 77 83 84 78 75 74 68 67 67 71 64 66 72 83 84 91 98 105 107 111 117 123 124 130 121 116 106 100 95 88 82 77 69 61 52 42 39 35 34 31 36
73 78 79 82 87 93 90 86 80 73 66 66 72 66 66 73 78 80 85 106 100 106 116 121 124 127 122 118 109 103 96 89 82 77 68 62 50 41 43 36 26 30 35
83 82 86 89 89 93 95 97 91 82 77 68 68 75 68 66 69 75 79 86 101 107 116 116 124 123 116 116 111 105 101 92 81 75 67 57 53 43 37 33 29 28 30
88 93 97 95 100 100 100 101 101 90 83 80 73 67 77 66 64 65 74 87 99 109 113 112 115 116 107 106 110 104 94 84 77 71 62 58 52 46 41 35 30 29 29
100 99 98 99 106 111 110 107 102 100 88 84 83 74 74 72 65 65 73 78 101 102 106 103 104 107 103 104 102 93 86 79 72 69 65 59 55 47 41 33 28 30 29
113 115 115 113 107 110 117 116 108 99 96 87 80 80 76 75 70 62 64 75 102 105 92 90 91 92 100 103 101 90 83 84 81 74 64 59 49 43 38 32 30 31 29
122 127 127 127 124 116 112 115 107 97 87 87 81 83 78 79 74 66 59 61 91 87 84 77 81 79 88 92 81 70 87 83 77 69 59 53 50 46 37 35 32 32 33
125 129 128 123 120 116 110 108 106 100 77 80 80 77 77 79 82 63 51 64 84 93 85 70 69 78 88 88 85 83 79 78 74 68 64 57 53 46 40 36 33 31 33
115 113 103 99 100 101 102 108 103 89 70 72 74 70 78 72 67 69 39 56 75 94 84 82 79 89 90 96 100 98 88 79 74 70 61 56 51 47 39 33 30 29 35
92 95 93 87 87 86 84 82 92 96 71 62 66 64 73 71 68 56 43 42 75 83 96 91 89 96 98 101 102 99 89 80 72 63 60 55 50 42 37 29 27 29 36
83 83 85 86 84 80 75 77 74 77 76 61 56 56 60 65 68 53 44 44 74 83 94 93 95 99 101 101 98 95 89 74 64 62 59 50 45 41 32 27 26 29 37
77 79 78 79 78 79 77 79 79 74 75 70 62 58 45 60 53 62 45 60 73 89 87 89 96 89 92 95 97 95 81 72 65 61 53 49 43 35 27 25 26 29 37
76 75 74 74 74 75 75 73 70 67 66 58 62 58 47 38 53 67 51 57 60 82 88 87 84 79 82 91 91 81 74 64 61 54 48 40 36 31 26 25 25 32 37
68 69 68 69 70 68 67 64 59 59 52 56 58 51 41 38 59 64 50 54 66 69 87 85 69 72 75 73 71 73 65 60 52 47 42 37 32 27 26 23 24 30 39
61 64 63 63 60 61 63 59 45 41 47 48 44 38 30 39 56 61 53 60 64 62 57 62 68 58 56 64 69 59 52 50 46 43 37 33 29 26 25 23 27 33 40
48 49 49 47 43 40 34 29 33 33 31 29 26 25 27 37 51 52 51 53 49 50 51 55 48 48 55 53 45 43 43 38 36 32 29 27 25 23 24 25 30 36 43
41 41 39 36 32 28 22 15 11 11 11 14 18 22 22 32 38 37 40 42 46 50 46 41 44 53 53 45 43 39 34 33 28 25 24 23 23 23 25 28 33 38 45
37 36 36 35 34 31 26 19 12 5 7 10 13 18 22 29 33 35 42 48 49 45 46 51 51 44 40 39 32 30 28 25 22 22 21 23 25 25 28 33 37 41 49
42 39 38 37 36 34 32 29 27 21 18 17 16 15 21 32 42 48 51 50 47 46 47 43 39 36 30 26 25 22 21 21 21 22 23 24 26 28 30 37 39 44 54
Wind_Direction_500mb
354 346 330 315 302 293 289 287 280 270 263 258 253 248 244 240 237 237 237 235 233 231 230 232 234 234 233 232 232 231 231 232 233 238 244 253 267 282 290 300 305 310 316
353 348 344 333 314 302 296 290 282 277 271 263 257 252 248 243 240 237 237 237 234 232 231 231 232 232 231 231 231 231 231 232 232 236 242 246 253 259 270 283 290 301 307
343 344 342 341 336 324 303 293 288 285 278 269 261 254 252 248 244 240 238 238 237 235 234 232 233 232 231 230 230 230 231 232 234 237 239 239 245 254 264 270 277 285 293
344 339 341 342 339 337 329 311 296 287 279 276 269 263 258 253 249 246 242 240 239 237 234 234 235 235 234 231 230 230 231 231 232 234 237 238 241 248 257 268 277 288 299
339 340 340 336 335 334 334 330 316 294 286 279 273 268 263 255 251 246 243 242 241 239 238 235 235 235 236 235 233 229 229 228 229 231 231 233 239 245 257 265 279 292 308
334 336 334 334 330 323 323 328 329 321 300 286 279 274 268 260 255 250 245 243 243 242 242 239 236 235 234 232 232 231 233 232 231 231 231 233 236 242 251 263 277 291 301
334 335 333 333 329 326 320 315 318 322 319 300 283 277 273 269 261 256 252 246 242 242 243 242 238 236 232 230 228 228 229 229 230 236 235 236 235 242 245 256 268 283 294
327 328 330 332 330 326 323 319 314 309 311 311 297 283 275 272 270 263 257 251 246 245 245 244 242 239 233 229 226 226 227 227 229 231 231 234 234 237 243 254 266 287 300
323 324 325 327 325 326 325 321 315 309 301 301 304 296 282 275 271 266 260 253 246 245 244 243 241 238 233 229 226 225 226 225 226 227 226 229 233 235 245 257 273 281 297
315 316 317 319 319 319 321 320 316 313 304 295 297 299 291 280 271 266 260 249 250 244 241 238 240 238 233 227 227 225 224 224 222 222 225 227 229 231 237 248 260 276 293
306 308 310 311 311 313 314 315 314 312 306 297 289 288 293 285 275 265 250 239 246 242 241 238 239 236 232 225 226 225 226 225 222 222 223 225 227 227 232 244 255 269 277
303 301 300 302 305 307 308 309 309 307 303 297 292 286 284 289 279 263 251 240 240 244 244 242 237 235 228 221 224 224 222 220 219 221 221 225 225 227 230 234 248 263 278
301 300 299 299 297 298 301 302 304 303 299 295 288 283 281 283 283 269 256 235 231 237 242 246 242 233 225 218 219 218 213 215 214 215 217 221 226 231 234 236 245 259 271
298 297 297 297 295 293 293 295 297 296 292 290 288 281 281 279 276 276 252 232 228 226 232 234 234 224 216 212 202 203 211 211 213 214 213 220 228 231 235 243 250 262 276
296 296 295 296 295 294 290 288 288 287 281 279 278 278 276 275 275 277 267 230 221 221 229 226 211 201 197 198 197 197 209 210 210 212 213 217 224 230 236 245 257 272 293
295 295 295 294 293 292 290 287 282 284 279 266 264 263 271 275 277 274 263 239 220 221 215 220 208 199 194 195 198 197 203 206 207 208 209 217 223 231 237 246 260 281 294
297 297 295 292 291 290 289 286 287 285 282 267 261 261 259 262 267 268 261 232 214 218 213 213 213 197 196 199 202 203 204 208 209 202 209 215 223 230 240 252 269 288 300
301 298 295 292 289 287 282 281 281 284 287 281 267 264 254 248 247 253 238 218 207 204 206 205 204 202 202 204 205 208 208 208 205 206 210 215 222 232 241 257 278 296 306
304 301 300 297 291 287 283 279 281 280 276 272 267 270 261 240 234 237 231 214 208 198 204 201 208 212 213 211 210 209 207 201 203 207 213 217 224 233 245 263 285 304 315
309 305 302 297 294 289 287 285 282 278 277 270 261 271 275 245 223 217 221 213 213 200 205 203 208 213 218 212 208 204 198 194 201 208 213 220 227 235 248 267 290 309 317
313 312 311 308 304 302 297 290 285 275 271 263 268 274 264 239 220 220 213 204 214 213 205 206 212 217 219 211 203 196 190 197 202 209 214 223 233 247 258 273 296 311 319
320 318 318 313 313 306 300 296 291 282 270 274 280 277 250 229 219 213 211 212 214 216 213 211 209 219 213 200 193 189 191 199 206 211 216 225 236 247 262 283 303 316 323
331 331 332 331 328 323 320 309 288 285 282 281 277 260 245 229 208 210 215 214 209 204 201 200 206 199 187 183 179 188 198 203 208 213 220 230 244 256 273 295 308 317 325
349 350 351 353 353 353 353 343 319 296 275 263 246 232 222 199 198 207 201 189 179 175 179 186 185 179 172 171 180 192 197 204 210 218 230 244 252 265 278 294 308 318 323
7 11 15 17 20 23 24 31 41 90 159 177 182 179 175 174 174 171 164 161 158 161 166 166 163 158 163 176 186 194 203 211 218 232 243 253 261 268 280 296 306 314 320
24 25 29 33 37 40 46 52 57 64 78 90 103 122 141 148 147 149 148 148 149 151 152 148 153 165 171 181 190 199 210 221 228 239 251 262 266 276 289 299 307 312 314
Wind_Speed_850mb
45 45 43 38 41 45 55 61 68 73 80 83 83 87 89 94 101 106 110 108 107 104 98 95 93 88 84 76 69 61 56 51 48 44 39 34 31 27 29 32 35 37 40
52 47 46 47 44 44 48 52 59 68 74 84 87 91 95 96 99 104 113 115 114 113 106 101 100 95 92 83 76 69 60 54 50 49 46 42 37 33 33 35 41 43 43
53 56 54 53 55 52 49 50 52 55 66 75 86 91 98 101 102 105 111 120 120 118 114 107 106 103 101 92 84 74 64 58 55 54 52 48 43 41 39 43 44 46 43
62 56 60 61 61 64 62 57 58 56 57 68 82 89 95 100 104 106 108 118 124 126 119 112 112 111 108 98 90 79 71 68 62 59 58 52 46 45 46 43 42 43 37
69 65 62 61 62 62 65 66 60 60 61 61 70 83 97 99 102 109 110 114 124 128 124 120 118 113 110 101 94 87 82 74 70 67 64 57 52 49 43 39 36 39 34
69 70 66 64 63 65 68 69 67 67 64 62 70 77 90 102 101 105 108 109 117 121 130 127 120 118 115 103 95 87 81 79 76 72 69 61 54 47 41 35 31 30 30
72 76 78 74 69 66 66 67 67 67 70 67 69 71 85 94 96 102 106 111 114 115 123 129 124 127 116 108 100 92 86 82 75 69 67 61 56 45 37 35 32 31 36
68 73 77 83 84 78 75 74 68 67 67 71 64 66 72 83 84 91 98 105 107 111 117 123 124 130 121 116 106 100 95 88 82 77 69 61 52 42 39 35 34 31 36
73 78 79 82 87 93 90 86 80 73 66 66 72 66 66 73 78 80 85 106 100 106 116 121 124 127 122 118 109 103 96 89 82 77 68 62 50 41 43 36 26 30 35
83 82 86 89 89 93 95 97 91 82 77 68 68 75 68 66 69 75 79 86 101 107 116 116 124 123 116 116 111 105 101 92 81 75 67 57 53 43 37 33 29 28 30
88 93 97 95 100 100 100 101 101 90 83 80 73 67 77 66 64 65 74 87 99 109 113 112 115 116 107 106 110 104 94 84 77 71 62 58 52 46 41 35 30 29 29
100 99 98 99 106 111 110 107 102 100 88 84 83 74 74 72 65 65 73 78 101 102 106 103 104 107 103 104 102 93 86 79 72 69 65 59 55 47 41 33 28 30 29
113 115 115 113 107 110 117 116 108 99 96 87 80 80 76 75 70 62 64 75 102 105 92 90 91 92 100 103 101 90 83 84 81 74 64 59 49 43 38 32 30 31 29
122 127 127 127 124 116 112 115 107 97 87 87 81 83 78 79 74 66 59 61 91 87 84 77 81 79 88 92 81 70 87 83 77 69 59 53 50 46 37 35 32 32 33
125 129 128 123 120 116 110 108 106 100 77 80 80 77 77 79 82 63 51 64 84 93 85 70 69 78 88 88 85 83 79 78 74 68 64 57 53 46 40 36 33 31 33
115 113 103 99 100 101 102 108 103 89 70 72 74 70 78 72 67 69 39 56 75 94 84 82 79 89 90 96 100 98 88 79 74 70 61 56 51 47 39 33 30 29 35
92 95 93 87 87 86 84 82 92 96 71 62 66 64 73 71 68 56 43 42 75 83 96 91 89 96 98 101 102 99 89 80 72 63 60 55 50 42 37 29 27 29 36
83 83 85 86 84 80 75 77 74 77 76 61 56 56 60 65 68 53 44 44 74 83 94 93 95 99 101 101 98 95 89 74 64 62 59 50 45 41 32 27 26 29 37
77 79 78 79 78 79 77 79 79 74 75 70 62 58 45 60 53 62 45 60 73 89 87 89 96 89 92 95 97 95 81 72 65 61 53 49 43 35 27 25 26 29 37
76 75 74 74 74 75 75 73 70 67 66 58 62 58 47 38 53 67 51 57 60 82 88 87 84 79 82 91 91 81 74 64 61 54 48 40 36 31 26 25 25 32 37
68 69 68 69 70 68 67 64 59 59 52 56 58 51 41 38 59 64 50 54 66 69 87 85 69 72 75 73 71 73 65 60 52 47 42 37 32 27 26 23 24 30 39
61 64 63 63 60 61 63 59 45 41 47 48 44 38 30 39 56 61 53 60 64 62 57 62 68 58 56 64 69 59 52 50 46 43 37 33 29 26 25 23 27 33 40
48 49 49 47 43 40 34 29 33 33 31 29 26 25 27 37 51 52 51 53 49 50 51 55 48 48 55 53 45 43 43 38 36 32 29 27 25 23 24 25 30 36 43
41 41 39 36 32 28 22 15 11 11 11 14 18 22 22 32 38 37 40 42 46 50 46 41 44 53 53 45 43 39 34 33 28 25 24 23 23 23 25 28 33 38 45
37 36 36 35 34 31 26 19 12 5 7 10 13 18 22 29 33 35 42 48 49 45 46 51 51 44 40 39 32 30 28 25 22 22 21 23 25 25 28 33 37 41 49
42 39 38 37 36 34 32 29 27 21 18 17 16 15 21 32 42 48 51 50 47 46 47 43 39 36 30 26 25 22 21 21 21 22 23 24 26 28 30 37 39 44 54
Wind_Direction_850mb
354 346 330 315 302 293 289 287 280 270 263 258 253 248 244 240 237 237 237 235 233 231 230 232 234 234 233 232 232 231 231 232 233 238 244 253 267 282 290 300 305 310 316
353 348 344 333 314 302 296 290 282 277 271 263 257 252 248 243 240 237 237 237 234 232 231 231 232 232 231 231 231 231 231 232 232 236 242 246 253 259 270 283 290 301 307
343 344 342 341 336 324 303 293 288 285 278 269 261 254 252 248 244 240 238 238 237 235 234 232 233 232 231 230 230 230 231 232 234 237 239 239 245 254 264 270 277 285 293
344 339 341 342 339 337 329 311 296 287 279 276 269 263 258 253 249 246 242 240 239 237 234 234 235 235 234 231 230 230 231 231 232 234 237 238 241 248 257 268 277 288 299
339 340 340 336 335 334 334 330 316 294 286 279 273 268 263 255 251 246 243 242 241 239 238 235 235 235 236 235 233 229 229 228 229 231 231 233 239 245 257 265 279 292 308
334 336 334 334 330 323 323 328 329 321 300 286 279 274 268 260 255 250 245 243 243 242 242 239 236 235 234 232 232 231 233 232 231 231 231 233 236 242 251 263 277 291 301
334 335 333 333 329 326 320 315 318 322 319 300 283 277 273 269 261 256 252 246 242 242 243 242 238 236 232 230 228 228 229 229 230 236 235 236 235 242 245 256 268 283 294
327 328 330 332 330 326 323 319 314 309 311 311 297 283 275 272 270 263 257 251 246 245 245 244 242 239 233 229 226 226 227 227 229 231 231 234 234 237 243 254 266 287 300
323 324 325 327 325 326 325 321 315 309 301 301 304 296 282 275 271 266 260 253 246 245 244 243 241 238 233 229 226 225 226 225 226 227 226 229 233 235 245 257 273 281 297
315 316 317 319 319 319 321 320 316 313 304 295 297 299 291 280 271 266 260 249 250 244 241 238 240 238 233 227 227 225 224 224 222 222 225 227 229 231 237 248 260 276 293
306 308 310 311 311 313 314 315 314 312 306 297 289 288 293 285 275 265 250 239 246 242 241 238 239 236 232 225 226 225 226 225 222 222 223 225 227 227 232 244 255 269 277
303 301 300 302 305 307 308 309 309 307 303 297 292 286 284 289 279 263 251 240 240 244 244 242 237 235 228 221 224 224 222 220 219 221 221 225 225 227 230 234 248 263 278
301 300 299 299 297 298 301 302 304 303 299 295 288 283 281 283 283 269 256 235 231 237 242 246 242 233 225 218 219 218 213 215 214 215 217 221 226 231 234 236 245 259 271
298 297 297 297 295 293 293 295 297 296 292 290 288 281 281 279 276 276 252 232 228 226 232 234 234 224 216 212 202 203 211 211 213 214 213 220 228 231 235 243 250 262 276
296 296 295 296 295 294 290 288 288 287 281 279 278 278 276 275 275 277 267 230 221 221 229 226 211 201 197 198 197 197 209 210 210 212 213 217 224 230 236 245 257 272 293
295 295 295 294 293 292 290 287 282 284 279 266 264 263 271 275 277 274 263 239 220 221 215 220 208 199 194 195 198 197 203 206 207 208 209 217 223 231 237 246 260 281 294
297 297 295 292 291 290 289 286 287 285 282 267 261 261 259 262 267 268 261 232 214 218 213 213 213 197 196 199 202 203 204 208 209 202 209 215 223 230 240 252 269 288 300
301 298 295 292 289 287 282 281 281 284 287 281 267 264 254 248 247 253 238 218 207 204 206 205 204 202 202 204 205 208 208 208 205 206 210 215 222 232 241 257 278 296 306
304 301 300 297 291 287 283 279 281 280 276 272 267 270 261 240 234 237 231 214 208 198 204 201 208 212 213 211 210 209 207 201 203 207 213 217 224 233 245 263 285 304 315
309 305 302 297 294 289 287 285 282 278 277 270 261 271 275 245 223 217 221 213 213 200 205 203 208 213 218 212 208 204 198 194 201 208 213 220 227 235 248 267 290 309 317
313 312 311 308 304 302 297 290 285 275 271 263 268 274 264 239 220 220 213 204 214 213 205 206 212 217 219 211 203 196 190 197 202 209 214 223 233 247 258 273 296 311 319
320 318 318 313 313 306 300 296 291 282 270 274 280 277 250 229 219 213 211 212 214 216 213 211 209 219 213 200 193 189 191 199 206 211 216 225 236 247 262 283 303 316 323
331 331 332 331 328 323 320 309 288 285 282 281 277 260 245 229 208 210 215 214 209 204 201 200 206 199 187 183 179 188 198 203 208 213 220 230 244 256 273 295 308 317 325
349 350 351 353 353 353 353 343 319 296 275 263 246 232 222 199 198 207 201 189 179 175 179 186 185 179 172 171 180 192 197 204 210 218 230 244 252 265 278 294 308 318 323
7 11 15 17 20 23 24 31 41 90 159 177 182 179 175 174 174 171 164 161 158 161 166 166 163 158 163 176 186 194 203 211 218 232 243 253 261 268 280 296 306 314 320
24 25 29 33 37 40 46 52 57 64 78 90 103 122 141 148 147 149 148 148 149 151 152 148 153 165 171 181 190 199 210 221 228 239 251 262 266 276 289 299 307 312 314